Chehalis, WA
on Thursday, January 17, 2013

Thursday
Previous Day Next Day
Daily Summary
 ActualAverage (KOLM)Record (KOLM)
Temperature
Mean Temperature °F 40°F  
Max Temperature 33°F 46°F 58°F (1977)
Min Temperature 30°F 34°F 8°F (1950)
Degree Days
Heating Degree Days 34 25  
Month to date heating degree days 435  
Since 1 July heating degree days 2705  
Cooling Degree Days 0 0  
Month to date cooling degree days 0  
Year to date cooling degree days 0  
Moisture
Dew Point 32°F   
Average Humidity 98    
Maximum Humidity 100    
Minimum Humidity 93    
Precipitation
Precipitation 0.00 in 0.27 in 2.21 in (2005)
Month to date precipitation 4.43  
Year to date precipitation 4.43  
Wind
Wind Speed 1 mph   
Max Wind Speed 7 mph   
Max Gust Speed mph   
Visibility 1 miles   
Events Fog   

Key: T is trace of precipitation, MM is missing value
Source: NWS Daily Summary
Time(PST)TemperatureDew PointHumidity Pressure Visibility Wind DirectionWind SpeedGust SpeedPrecipitationEvents Conditions
12:15 AM 32.0°F 32.0°F 100% 30.53 in 0.2 miles Calm Calm - N/A Fog Fog
12:35 AM 32.0°F 32.0°F 100% 30.53 in 0.2 miles Calm Calm - N/A Fog Fog
12:55 AM 32.0°F 32.0°F 100% 30.53 in 0.2 miles Calm Calm - N/A Fog Fog
1:15 AM 32.0°F 32.0°F 100% 30.53 in 0.2 miles Calm Calm - N/A Fog Fog
1:35 AM 32.0°F 32.0°F 100% 30.53 in 0.2 miles Calm Calm - N/A Fog Fog
1:55 AM 32.0°F 32.0°F 100% 30.52 in 0.2 miles Calm Calm - N/A Fog Fog
2:15 AM 32.0°F 32.0°F 100% 30.53 in 0.5 miles Calm Calm - N/A Fog Fog
2:35 AM 32.0°F 32.0°F 100% 30.53 in 0.5 miles Calm Calm - N/A Fog Fog
2:55 AM 32.0°F 32.0°F 100% 30.53 in 0.2 miles Calm Calm - N/A Fog Fog
3:15 AM 32.0°F 32.0°F 100% 30.52 in 0.5 miles Calm Calm - N/A Fog Fog
3:35 AM 32.0°F 32.0°F 100% 30.51 in 0.5 miles Calm Calm - N/A Fog Fog
3:55 AM 32.0°F 32.0°F 100% 30.50 in 0.5 miles Calm Calm - N/A Fog Fog
4:15 AM 32.0°F 32.0°F 100% 30.50 in 0.2 miles Calm Calm - N/A Fog Fog
4:35 AM 32.0°F 32.0°F 100% 30.49 in 0.2 miles South 3.5 mph - N/A Fog Fog
4:55 AM 32.0°F 32.0°F 100% 30.48 in 0.5 miles Calm Calm - N/A Fog Fog
5:15 AM 32.0°F 32.0°F 100% 30.48 in 0.5 miles Calm Calm - N/A Fog Fog
5:35 AM 32.0°F 32.0°F 100% 30.47 in 0.5 miles Calm Calm - N/A Fog Fog
5:55 AM 32.0°F 32.0°F 100% 30.47 in 0.5 miles Calm Calm - N/A Fog Fog
6:15 AM 32.0°F 32.0°F 100% 30.47 in 0.5 miles Calm Calm - N/A Fog Fog
6:35 AM 32.0°F 32.0°F 100% 30.47 in 0.5 miles Calm Calm - N/A Fog Light Freezing Fog
6:55 AM 32.0°F 32.0°F 100% 30.47 in 0.5 miles Calm Calm - N/A Fog Light Freezing Fog
7:15 AM 32.0°F 32.0°F 100% 30.46 in 0.2 miles Calm Calm - N/A Fog Light Freezing Fog
7:35 AM 32.0°F 32.0°F 100% 30.47 in 0.2 miles Calm Calm - N/A Fog Fog
7:55 AM 32.0°F 32.0°F 100% 30.47 in 0.2 miles SE 4.6 mph - N/A Fog Light Freezing Fog
8:15 AM 32.0°F 32.0°F 100% 30.47 in 0.2 miles Calm Calm - N/A Fog Light Freezing Fog
8:35 AM 32.0°F 32.0°F 100% 30.47 in 0.2 miles South 3.5 mph - N/A Fog Light Freezing Fog
8:55 AM 32.0°F 30.2°F 93% 30.48 in 0.2 miles South 3.5 mph - N/A Fog Light Freezing Fog
9:15 AM 30.2°F 30.2°F 100% 30.48 in 0.2 miles South 3.5 mph - N/A Fog Light Freezing Fog
9:35 AM 32.0°F 30.2°F 93% 30.48 in 0.2 miles Calm Calm - N/A Fog Light Freezing Fog
9:55 AM 32.0°F 30.2°F 93% 30.49 in 0.2 miles Calm Calm - N/A Fog Light Freezing Fog
10:15 AM 32.0°F 30.2°F 93% 30.48 in 0.2 miles Calm Calm - N/A Fog Light Freezing Fog
10:35 AM 32.0°F 32.0°F 100% 30.48 in 0.2 miles Calm Calm - N/A Fog Light Freezing Fog
10:55 AM 32.0°F 32.0°F 100% 30.47 in 0.2 miles SW 3.5 mph - N/A Fog Light Freezing Fog
11:15 AM 32.0°F 32.0°F 100% 30.46 in 0.2 miles Calm Calm - N/A Fog Fog
11:35 AM 32.0°F 32.0°F 100% 30.45 in 0.2 miles Calm Calm - N/A Fog Fog
11:55 AM 32.0°F 32.0°F 100% 30.45 in 0.2 miles Calm Calm - N/A Fog Fog
12:15 PM 32.0°F 32.0°F 100% 30.43 in 0.2 miles Calm Calm - N/A Fog Fog
12:35 PM 32.0°F 32.0°F 100% 30.42 in 1.0 miles Calm Calm - N/A   Overcast
12:55 PM 32.0°F 32.0°F 100% 30.42 in 1.8 miles Calm Calm - N/A   Overcast
1:15 PM 32.0°F 32.0°F 100% 30.41 in 3.0 miles Calm Calm - N/A   Overcast
1:35 PM 32.0°F 32.0°F 100% 30.40 in 4.0 miles Calm Calm - N/A   Overcast
1:55 PM 32.0°F 32.0°F 100% 30.38 in 2.5 miles SW 4.6 mph - N/A   Overcast
2:15 PM 32.0°F 32.0°F 100% 30.37 in 6.0 miles WSW 3.5 mph - N/A   Overcast
2:35 PM 33.8°F 32.0°F 93% 30.37 in 6.0 miles Calm Calm - N/A   Overcast
2:55 PM 33.8°F 32.0°F 93% 30.37 in 6.0 miles Calm Calm - N/A   Overcast
3:15 PM 33.8°F 32.0°F 93% 30.36 in 6.0 miles SW 3.5 mph - N/A   Overcast
3:35 PM 33.8°F 32.0°F 93% 30.36 in 5.0 miles Calm Calm - N/A   Overcast
4:15 PM 33.8°F 32.0°F 93% 30.35 in 4.0 miles Calm Calm - N/A   Overcast
4:55 PM 33.8°F 32.0°F 93% 30.35 in 2.0 miles Calm Calm - N/A   Overcast
5:35 PM 33.8°F 32.0°F 93% 30.35 in 0.8 miles Calm Calm - N/A   Overcast
5:55 PM 33.8°F 32.0°F 93% 30.35 in 0.5 miles Calm Calm - N/A Fog Fog
6:15 PM 33.8°F 32.0°F 93% 30.35 in 0.5 miles Calm Calm - N/A Fog Fog
6:55 PM 32.0°F 32.0°F 100% 30.35 in 0.2 miles Calm Calm - N/A Fog Fog
7:15 PM 32.0°F 32.0°F 100% 30.35 in 0.5 miles NNE 3.5 mph - N/A Fog Fog
7:35 PM 32.0°F 32.0°F 100% 30.35 in 1.0 miles Calm Calm - N/A   Overcast
7:55 PM 32.0°F 32.0°F 100% 30.35 in 0.5 miles Calm Calm - N/A Fog Fog
9:15 PM 32.0°F 32.0°F 100% 30.34 in 0.5 miles SSW 3.5 mph - N/A Fog Fog
9:35 PM 32.0°F 32.0°F 100% 30.34 in 0.5 miles South 5.8 mph - N/A Fog Fog
9:55 PM 32.0°F 32.0°F 100% 30.34 in 0.5 miles SSE 4.6 mph - N/A Fog Fog
10:15 PM 32.0°F 32.0°F 100% 30.33 in 1.0 miles South 4.6 mph - N/A   Overcast
10:35 PM 32.0°F 32.0°F 100% 30.33 in 0.8 miles South 5.8 mph - N/A   Overcast
10:55 PM 32.0°F 30.2°F 93% 30.33 in 0.5 miles South 6.9 mph - N/A Fog Light Freezing Fog
11:15 PM 32.0°F 32.0°F 100% 30.33 in 0.8 miles SSW 4.6 mph - N/A   Overcast
11:35 PM 32.0°F 32.0°F 100% 30.33 in 0.5 miles SW 5.8 mph - N/A Fog Light Freezing Fog
11:55 PM 32.0°F 30.2°F 93% 30.33 in 0.5 miles SSW 4.6 mph - N/A Fog Light Freezing Fog
Moon Phase
Jan. 17 Jan. 18 Jan. 26 Feb. 03 Feb. 10
Sunrise:07:50 AM (PST) Moon Rise:10:33 AM (PST)1/17
Sunset:04:54 PM (PST) Moon Set:No Moon Set/

Copyright © 2014 The Weather Underground, Inc.